"startDT [UTC]","vpos","CH4 [ppm]","stdev(CH4) [ppm]","CO2 [ppm]","stdev(CO2) [ppm]","H2O_reported [%]","stdev(H2O_reported)","CavityPressure [torr]","CavityTemp [C]","OutletValve","CH4_dry [ppm]","CO2_dry [ppm]","DasTemp [C]","EtalonTemp [C]","WarmBoxTemp [C]","MPVPosition","T_ECpre [C]","T_EC1 [C]","T_EC2 [C]","p_inlet [hPa]","p_in [hPa]","p_out [hPa]","T_inlet [C]","RH_inlet [%]","dwpt_inlet [C]","T_vent [C]","RH_vent [%]","dwpt_vent [C]","flow_vent [l min-1]","flow_inlet [l min-1]","dwpt_sample [C]","T_room [C]"
2015-11-06 00:00:00,3.0,1.89358,0.04516,399.298,2.269,0.0249,0.0330,139.985,45.000,31597.23349,1.89841,399.546,35.375,45.069,45.000,0.00,0.09,-272.75,-272.81,-6,491,-957,21.2,3.3,-24.5,21.4,3.4,-24.2,5.73,2.05,-11.8,27.5
2015-11-06 00:01:00,3.0,1.87602,0.00034,397.130,0.048,0.0053,0.0022,139.998,45.000,31577.42500,1.87610,397.158,35.374,45.069,45.000,0.00,0.09,-272.75,-272.81,-6,491,-957,21.2,3.3,-24.5,21.4,3.4,-24.2,5.73,1.95,-11.8,27.5
2015-11-06 00:02:00,3.0,1.87610,0.00029,397.346,0.113,0.0054,0.0022,140.000,45.000,31569.20308,1.87623,397.366,35.373,45.069,45.000,0.00,0.09,-272.74,-272.80,-6,491,-957,21.2,3.3,-24.6,21.4,3.4,-24.3,5.73,1.81,-11.8,27.6
2015-11-06 00:03:00,3.0,1.87577,0.00033,397.556,0.048,0.0059,0.0019,139.999,45.000,31568.65821,1.87587,397.583,35.364,45.069,45.000,0.00,0.09,-272.75,-272.80,-6,491,-957,21.2,3.3,-24.6,21.4,3.4,-24.2,5.73,1.94,-11.8,27.6
2015-11-06 00:04:00,3.0,1.87582,0.00035,397.586,0.026,0.0054,0.0026,140.000,45.000,31567.89154,1.87591,397.612,35.326,45.069,45.000,0.00,0.09,-272.76,-272.81,-6,491,-957,21.2,3.3,-24.6,21.4,3.4,-24.3,5.73,2.12,-11.8,27.6
2015-11-06 00:05:00,3.0,1.87605,0.00028,397.587,0.030,0.0033,0.0016,139.998,45.000,31563.28953,1.87611,397.604,35.330,45.069,45.000,0.00,0.09,-272.74,-272.81,-7,491,-957,21.2,3.3,-24.6,21.4,3.4,-24.2,5.73,2.04,-11.9,27.6
2015-11-06 00:06:00,3.0,1.87593,0.00029,397.578,0.032,0.0029,0.0019,139.998,45.000,31563.81487,1.87599,397.590,35.328,45.069,45.000,0.00,0.09,-272.74,-272.80,-7,492,-957,21.2,3.3,-24.6,21.4,3.4,-24.2,5.73,1.84,-11.8,27.6
2015-11-06 00:07:00,3.0,1.87585,0.00033,397.585,0.039,0.0033,0.0021,140.000,45.000,31565.14576,1.87590,397.602,35.364,45.069,45.000,0.00,0.09,-272.75,-272.81,-6,492,-957,21.2,3.3,-24.6,21.5,3.4,-24.2,5.73,1.86,-11.8,27.6
2015-11-06 00:08:00,3.0,1.87578,0.00031,397.588,0.032,0.0023,0.0019,139.998,45.000,31565.72030,1.87585,397.599,35.374,45.069,45.000,0.00,0.09,-272.75,-272.81,-6,492,-957,21.3,3.3,-24.7,21.5,3.4,-24.3,5.73,2.07,-11.9,27.6
2015-11-06 00:09:00,3.0,1.87589,0.00037,397.562,0.029,0.0018,0.0014,139.998,45.000,31566.22507,1.87591,397.570,35.350,45.069,45.000,0.00,0.09,-272.74,-272.81,-6,493,-957,21.3,3.3,-24.6,21.5,3.4,-24.2,5.73,2.11,-11.8,27.6
2015-11-06 00:10:00,3.0,1.87590,0.00023,397.583,0.023,0.0016,0.0017,139.998,45.000,31566.89500,1.87590,397.590,35.336,45.069,45.000,0.00,0.09,-272.75,-272.81,-6,493,-957,21.4,3.3,-24.6,21.5,3.4,-24.2,5.73,1.91,-11.9,27.6
2015-11-06 00:11:00,3.0,1.87616,0.00033,397.615,0.032,0.0013,0.0019,140.000,45.000,31568.22882,1.87621,397.622,35.331,45.069,45.000,0.00,0.09,-272.75,-272.81,-7,493,-957,21.4,3.3,-24.7,21.5,3.3,-24.3,5.73,1.81,-11.9,27.6
2015-11-06 00:12:00,3.0,1.87574,0.00041,397.594,0.022,0.0008,0.0019,139.999,45.000,31570.09287,1.87573,397.597,35.316,45.069,45.000,0.00,0.09,-272.74,-272.80,-7,493,-957,21.4,3.3,-24.6,21.6,3.3,-24.3,5.73,1.99,-11.9,27.6
2015-11-06 00:13:00,3.0,1.87598,0.00039,397.597,0.038,0.0010,0.0019,140.000,45.000,31571.19879,1.87600,397.603,35.312,45.069,45.000,0.00,0.09,-272.75,-272.80,-6,494,-957,21.4,3.3,-24.6,21.6,3.3,-24.3,5.73,2.12,-11.8,27.7
2015-11-06 00:14:00,3.0,1.87608,0.00043,397.622,0.037,0.0007,0.0014,139.998,45.000,31572.54880,1.87610,397.625,35.313,45.069,45.000,0.00,0.09,-272.76,-272.81,-6,494,-957,21.5,3.2,-24.6,21.6,3.3,-24.3,5.73,1.99,-11.8,27.7
2015-11-06 00:15:00,3.0,1.87602,0.00040,397.617,0.024,0.0000,0.0020,140.001,45.000,31574.46132,1.87602,397.617,35.311,45.069,45.000,0.00,0.09,-272.75,-272.81,-6,494,-957,21.5,3.2,-24.6,21.7,3.3,-24.3,5.73,1.81,-11.8,27.7
2015-11-06 00:16:00,3.0,1.87594,0.00032,397.604,0.034,-0.0001,0.0018,140.001,45.000,31576.66365,1.87594,397.605,35.310,45.069,45.000,0.00,0.09,-272.75,-272.80,-6,495,-957,21.6,3.2,-24.6,21.7,3.3,-24.3,5.73,1.90,-11.8,27.7
2015-11-06 00:17:00,3.0,1.87596,0.00044,397.596,0.037,0.0003,0.0024,140.002,45.000,31579.55852,1.87595,397.596,35.312,45.069,45.000,0.00,0.09,-272.76,-272.80,-7,495,-957,21.6,3.2,-24.7,21.7,3.3,-24.3,5.73,2.11,-11.8,27.7
2015-11-06 00:18:00,3.0,1.87583,0.00040,397.604,0.027,-0.0001,0.0015,139.998,45.000,31580.40385,1.87582,397.603,35.312,45.069,45.000,0.00,0.09,-272.75,-272.81,-7,495,-957,21.6,3.2,-24.7,21.7,3.3,-24.3,5.73,2.06,-11.8,27.7
2015-11-06 00:19:00,3.0,1.87595,0.00034,397.588,0.038,-0.0003,0.0013,140.004,45.000,31583.79387,1.87597,397.588,35.310,45.069,45.000,0.00,0.09,-272.74,-272.80,-6,496,-957,21.7,3.2,-24.7,21.8,3.3,-24.3,5.73,1.85,-11.8,27.7
2015-11-06 00:20:00,0.0,1.98776,0.04464,403.478,2.316,0.0754,0.0358,140.012,45.000,31781.25460,1.98492,403.720,35.301,45.069,45.000,0.00,0.09,-272.75,-272.80,-8,525,-956,21.7,3.2,-24.6,21.8,3.3,-24.3,5.73,1.96,-11.8,27.7
2015-11-06 00:21:00,0.0,2.00669,0.00059,404.461,0.031,0.0979,0.0017,139.999,45.000,31804.43391,2.00863,404.937,35.300,45.069,45.000,0.00,0.09,-272.75,-272.81,-8,526,-956,21.7,3.2,-24.7,21.8,3.3,-24.2,5.73,1.97,-11.8,27.8
2015-11-06 00:22:00,0.0,2.00683,0.00043,404.449,0.030,0.0982,0.0016,140.001,45.000,31811.50710,2.00877,404.927,35.295,45.069,45.000,0.00,0.09,-272.75,-272.80,-8,526,-956,21.8,3.2,-24.6,21.9,3.3,-24.3,5.73,2.05,-11.8,27.8
2015-11-06 00:23:00,0.0,2.00689,0.00040,404.462,0.034,0.0981,0.0015,139.998,45.000,31816.27622,2.00883,404.940,35.280,45.069,45.000,0.00,0.09,-272.75,-272.80,-8,527,-956,21.8,3.2,-24.7,21.9,3.3,-24.3,5.73,2.10,-11.8,27.8
2015-11-06 00:24:00,0.0,2.00681,0.00031,404.473,0.026,0.0992,0.0015,139.998,45.000,31818.60967,2.00874,404.956,35.275,45.069,45.000,0.00,0.09,-272.75,-272.81,-8,527,-956,21.8,3.2,-24.7,21.9,3.3,-24.3,5.73,2.06,-11.8,27.8
2015-11-06 00:25:00,0.0,2.00688,0.00027,404.474,0.028,0.0987,0.0015,139.996,45.000,31821.50483,2.00883,404.954,35.306,45.069,45.000,0.00,0.09,-272.74,-272.81,-8,527,-956,21.8,3.1,-24.8,21.9,3.2,-24.4,5.73,1.96,-11.9,27.8
2015-11-06 00:26:00,0.0,2.00690,0.00044,404.459,0.031,0.0986,0.0020,140.000,45.000,31827.29084,2.00884,404.939,35.306,45.069,45.000,0.00,0.09,-272.74,-272.81,-8,527,-956,21.8,3.1,-24.7,21.9,3.2,-24.4,5.73,1.89,-11.8,27.8
2015-11-06 00:27:00,0.0,2.00710,0.00044,404.462,0.034,0.0979,0.0017,140.000,45.000,31828.22290,2.00906,404.939,35.279,45.069,45.000,0.00,0.09,-272.75,-272.81,-8,527,-956,21.8,3.1,-24.7,22.0,3.2,-24.3,5.73,1.89,-11.8,27.8
2015-11-06 00:28:00,0.0,2.00643,0.00053,404.427,0.028,0.0987,0.0019,139.998,45.000,31832.88200,2.00840,404.909,35.288,45.069,45.000,0.00,0.09,-272.75,-272.81,-8,528,-956,21.8,3.1,-24.7,22.0,3.2,-24.3,5.73,1.96,-11.8,27.8
2015-11-06 00:29:00,0.0,2.00623,0.00042,404.446,0.030,0.0987,0.0014,140.000,45.000,31834.52767,2.00819,404.925,35.276,45.069,45.000,0.00,0.09,-272.75,-272.80,-8,528,-956,21.8,3.2,-24.7,22.0,3.2,-24.3,5.73,2.06,-11.8,27.8
2015-11-06 00:30:00,0.0,2.00565,0.00053,404.411,0.034,0.0988,0.0017,139.999,45.000,31836.81807,2.00762,404.891,35.252,45.069,45.000,0.00,0.09,-272.75,-272.80,-8,528,-956,21.8,3.2,-24.7,22.0,3.2,-24.3,5.73,2.10,-11.8,27.8
2015-11-06 00:31:00,0.0,2.00587,0.00045,404.411,0.035,0.0991,0.0014,140.001,45.000,31836.90756,2.00778,404.893,35.250,45.069,45.000,0.00,0.09,-272.76,-272.81,-8,528,-956,21.8,3.2,-24.7,22.0,3.2,-24.3,5.73,2.04,-11.8,27.8
2015-11-06 00:32:00,0.0,2.00521,0.00067,404.393,0.039,0.0992,0.0015,140.001,45.000,31838.82979,2.00725,404.878,35.250,45.069,45.000,0.00,0.09,-272.75,-272.80,-8,528,-956,21.8,3.2,-24.7,22.0,3.2,-24.3,5.73,1.95,-11.8,27.8
2015-11-06 00:33:00,0.0,2.00471,0.00055,404.370,0.031,0.0991,0.0018,139.998,45.000,31840.77478,2.00662,404.852,35.250,45.069,45.000,0.00,0.09,-272.74,-272.80,-8,528,-956,21.8,3.1,-24.8,22.0,3.2,-24.3,5.73,1.87,-11.8,27.8
2015-11-06 00:34:00,0.0,2.00489,0.00061,404.367,0.028,0.0994,0.0014,140.002,45.000,31842.04509,2.00687,404.850,35.250,45.069,45.000,0.00,0.09,-272.75,-272.81,-8,528,-956,21.8,3.2,-24.6,22.0,3.2,-24.3,5.73,1.89,-11.8,27.8
2015-11-06 00:35:00,0.0,2.00495,0.00094,404.379,0.036,0.0997,0.0018,140.002,45.000,31841.98924,2.00697,404.865,35.263,45.069,45.000,0.00,0.09,-272.75,-272.80,-8,528,-956,21.8,3.2,-24.7,22.0,3.2,-24.3,5.73,1.99,-11.8,27.8
2015-11-06 00:36:00,0.0,2.00449,0.00039,404.388,0.039,0.0993,0.0020,139.999,45.000,31842.35791,2.00641,404.871,35.262,45.069,45.000,0.00,0.09,-272.75,-272.80,-8,528,-956,21.8,3.2,-24.6,21.9,3.3,-24.3,5.73,2.08,-11.8,27.9
2015-11-06 00:37:00,0.0,2.00462,0.00074,404.389,0.031,0.0991,0.0018,139.999,45.000,31842.95611,2.00664,404.872,35.255,45.069,45.000,0.00,0.09,-272.75,-272.81,-8,528,-956,21.8,3.2,-24.7,21.9,3.3,-24.2,5.73,2.10,-11.8,27.8
2015-11-06 00:38:00,0.0,2.00361,0.00056,404.339,0.028,0.1000,0.0016,139.998,45.000,31843.54715,2.00560,404.826,35.250,45.069,45.000,0.00,0.09,-272.75,-272.81,-8,528,-956,21.7,3.2,-24.7,21.9,3.3,-24.3,5.73,2.02,-11.8,27.9
2015-11-06 00:39:00,0.0,2.00323,0.00037,404.328,0.036,0.1000,0.0017,139.997,45.000,31845.26803,2.00518,404.816,35.250,45.069,45.000,0.00,0.09,-272.74,-272.80,-8,528,-956,21.7,3.2,-24.7,21.9,3.3,-24.3,5.73,1.91,-11.9,27.9
2015-11-06 00:40:00,0.0,2.00344,0.00048,404.317,0.033,0.0996,0.0017,139.997,45.000,31845.02185,2.00542,404.803,35.246,45.069,45.000,0.00,0.09,-272.75,-272.81,-8,528,-956,21.7,3.2,-24.7,21.9,3.3,-24.3,5.73,1.87,-11.8,27.8
2015-11-06 00:41:00,0.0,2.00283,0.00034,404.310,0.044,0.1002,0.0015,140.000,45.000,31847.27595,2.00483,404.798,35.245,45.069,45.000,0.00,0.09,-272.75,-272.81,-8,528,-956,21.7,3.2,-24.7,21.9,3.3,-24.3,5.73,1.92,-11.8,27.9
2015-11-06 00:42:00,0.0,2.00268,0.00035,404.292,0.027,0.0996,0.0020,140.000,45.000,31845.14363,2.00464,404.777,35.246,45.069,45.000,0.00,0.09,-272.75,-272.80,-8,528,-956,21.7,3.2,-24.7,21.9,3.3,-24.3,5.73,2.03,-11.8,27.8
2015-11-06 00:43:00,0.0,2.00274,0.00040,404.285,0.025,0.1003,0.0010,139.998,45.000,31846.95934,2.00468,404.773,35.235,45.069,45.000,0.00,0.09,-272.74,-272.80,-8,528,-956,21.7,3.2,-24.7,21.9,3.3,-24.3,5.73,2.10,-11.9,27.8
2015-11-06 00:44:00,0.0,2.00265,0.00044,404.285,0.027,0.1005,0.0017,139.998,45.000,31846.52183,2.00466,404.773,35.239,45.069,45.000,0.00,0.09,-272.75,-272.81,-8,528,-956,21.7,3.2,-24.7,21.9,3.3,-24.3,5.73,2.08,-11.9,27.8
2015-11-06 00:45:00,0.0,2.00270,0.00046,404.304,0.031,0.1004,0.0016,139.999,45.000,31845.49794,2.00466,404.793,35.224,45.069,45.000,0.00,0.09,-272.75,-272.81,-8,528,-956,21.7,3.2,-24.6,21.9,3.3,-24.3,5.73,1.98,-11.8,27.8
2015-11-06 00:46:00,0.0,2.00341,0.00046,404.304,0.029,0.1005,0.0019,139.998,45.000,31843.15954,2.00538,404.794,35.220,45.069,45.000,0.00,0.09,-272.74,-272.80,-8,528,-956,21.7,3.2,-24.6,21.9,3.3,-24.3,5.73,1.90,-11.9,27.8
2015-11-06 00:47:00,0.0,2.00310,0.00039,404.319,0.032,0.0995,0.0015,139.999,45.000,31841.84592,2.00510,404.803,35.225,45.069,45.000,0.00,0.09,-272.75,-272.80,-8,528,-956,21.6,3.2,-24.7,21.9,3.3,-24.3,5.73,1.88,-11.9,27.8
2015-11-06 00:48:00,0.0,2.00271,0.00052,404.297,0.032,0.1012,0.0023,139.999,45.000,31842.69220,2.00472,404.790,35.237,45.069,45.000,0.00,0.09,-272.75,-272.81,-8,528,-956,21.6,3.2,-24.6,21.9,3.3,-24.3,5.73,1.95,-11.9,27.8
2015-11-06 00:49:00,0.0,2.00274,0.00042,404.276,0.036,0.1000,0.0025,139.997,45.000,31843.18247,2.00473,404.763,35.211,45.069,45.000,0.00,0.09,-272.75,-272.80,-8,528,-956,21.6,3.2,-24.7,21.9,3.3,-24.2,5.73,2.05,-11.9,27.8
2015-11-06 00:50:00,0.0,2.00251,0.00045,404.280,0.031,0.1001,0.0020,140.001,45.000,31844.30022,2.00445,404.767,35.198,45.069,45.000,0.00,0.09,-272.75,-272.80,-8,528,-956,21.6,3.2,-24.6,21.8,3.3,-24.2,5.73,2.10,-11.9,27.8
2015-11-06 00:51:00,0.0,2.00227,0.00050,404.295,0.021,0.1009,0.0015,139.997,45.000,31842.33183,2.00431,404.786,35.188,45.069,45.000,0.00,0.09,-272.75,-272.81,-8,528,-956,21.6,3.2,-24.6,21.8,3.3,-24.2,5.73,2.07,-11.9,27.8
2015-11-06 00:52:00,0.0,2.00223,0.00038,404.304,0.034,0.1009,0.0014,139.995,45.000,31840.70581,2.00420,404.797,35.188,45.069,45.000,0.00,0.09,-272.74,-272.81,-8,528,-956,21.6,3.2,-24.6,21.8,3.3,-24.3,5.73,1.99,-11.9,27.8
2015-11-06 00:53:00,0.0,2.00224,0.00036,404.322,0.031,0.1004,0.0014,139.995,45.000,31839.47242,2.00421,404.808,35.193,45.069,45.000,0.00,0.09,-272.75,-272.81,-8,528,-956,21.6,3.2,-24.6,21.8,3.3,-24.3,5.73,1.89,-11.9,27.8
2015-11-06 00:54:00,0.0,2.00235,0.00036,404.347,0.039,0.1008,0.0015,140.000,45.000,31840.82559,2.00434,404.838,35.188,45.069,45.000,0.00,0.09,-272.75,-272.81,-8,528,-956,21.6,3.2,-24.6,21.8,3.3,-24.3,5.73,1.88,-11.9,27.8
2015-11-06 00:55:00,0.0,2.00246,0.00067,404.314,0.040,0.1004,0.0017,139.999,45.000,31840.13135,2.00448,404.804,35.189,45.069,45.000,0.00,0.09,-272.75,-272.80,-7,528,-956,21.5,3.2,-24.7,21.8,3.3,-24.3,5.73,1.95,-11.9,27.8
2015-11-06 00:56:00,0.0,2.00249,0.00042,404.308,0.037,0.1010,0.0013,140.001,45.000,31840.11266,2.00444,404.799,35.188,45.069,45.000,0.00,0.09,-272.74,-272.80,-7,528,-956,21.5,3.2,-24.6,21.8,3.3,-24.3,5.73,2.05,-11.9,27.8
2015-11-06 00:57:00,0.0,2.00236,0.00030,404.303,0.026,0.1008,0.0015,139.998,45.000,31839.36050,2.00437,404.795,35.188,45.069,45.000,0.00,0.09,-272.75,-272.80,-7,528,-956,21.5,3.3,-24.5,21.8,3.3,-24.3,5.73,2.11,-11.9,27.8
2015-11-06 00:58:00,0.0,2.00227,0.00041,404.306,0.034,0.1009,0.0016,139.999,45.000,31838.04732,2.00424,404.798,35.198,45.069,45.000,0.00,0.09,-272.75,-272.82,-8,528,-956,21.5,3.3,-24.6,21.7,3.3,-24.3,5.73,2.06,-11.9,27.8
2015-11-06 00:59:00,0.0,2.00173,0.00042,404.289,0.030,0.1010,0.0017,139.998,45.000,31838.76026,2.00374,404.780,35.188,45.069,45.000,0.00,0.09,-272.74,-272.80,-8,528,-956,21.5,3.3,-24.5,21.7,3.3,-24.3,5.73,1.96,-11.9,27.8
2015-11-06 01:00:00,0.0,2.00170,0.00042,404.279,0.029,0.1013,0.0015,140.000,45.000,31840.50219,2.00367,404.773,35.187,45.069,45.000,0.00,0.09,-272.74,-272.80,-8,528,-956,21.5,3.3,-24.6,21.7,3.3,-24.2,5.73,1.89,-11.9,27.8
2015-11-06 01:01:00,0.0,2.00217,0.00054,404.261,0.033,0.1018,0.0027,139.998,45.000,31837.91293,2.00419,404.756,35.188,45.069,45.000,0.00,0.09,-272.75,-272.81,-8,528,-956,21.5,3.3,-24.6,21.7,3.3,-24.2,5.73,1.89,-11.9,27.8
2015-11-06 01:02:00,0.0,2.00223,0.00044,404.284,0.031,0.1022,0.0018,139.999,45.000,31840.67343,2.00429,404.781,35.189,45.069,45.000,0.00,0.09,-272.75,-272.80,-8,528,-956,21.5,3.3,-24.6,21.7,3.3,-24.2,5.73,1.97,-11.9,27.8
2015-11-06 01:03:00,0.0,2.00200,0.00033,404.267,0.024,0.1020,0.0015,139.997,45.000,31837.66368,2.00401,404.765,35.181,45.069,45.000,0.00,0.09,-272.75,-272.80,-8,528,-956,21.5,3.3,-24.5,21.7,3.3,-24.2,5.73,2.07,-11.9,27.7
2015-11-06 01:04:00,0.0,2.00139,0.00032,404.248,0.037,0.1011,0.0014,140.000,45.000,31839.16088,2.00341,404.741,35.173,45.069,45.000,0.00,0.09,-272.75,-272.81,-8,528,-956,21.4,3.3,-24.5,21.7,3.3,-24.2,5.73,2.10,-11.9,27.7
2015-11-06 01:05:00,0.0,2.00131,0.00041,404.269,0.034,0.1027,0.0017,139.999,45.000,31836.27606,2.00330,404.767,35.148,45.069,45.000,0.00,0.09,-272.75,-272.81,-8,528,-956,21.4,3.3,-24.5,21.7,3.3,-24.1,5.73,2.04,-11.9,27.7
2015-11-06 01:06:00,0.0,2.00192,0.00028,404.270,0.036,0.1024,0.0016,139.997,45.000,31835.02725,2.00394,404.769,35.145,45.069,45.000,0.00,0.09,-272.74,-272.81,-7,528,-956,21.4,3.3,-24.5,21.7,3.3,-24.2,5.73,1.95,-11.9,27.7
2015-11-06 01:07:00,0.0,2.00182,0.00044,404.269,0.043,0.1026,0.0017,139.997,45.000,31835.01589,2.00383,404.769,35.157,45.069,45.000,0.00,0.09,-272.75,-272.81,-7,528,-956,21.4,3.3,-24.5,21.7,3.3,-24.2,5.73,1.88,-11.9,27.7
2015-11-06 01:08:00,0.0,2.00202,0.00045,404.280,0.032,0.1021,0.0016,140.000,45.000,31836.60682,2.00407,404.778,35.156,45.069,45.000,0.00,0.09,-272.76,-272.81,-7,528,-956,21.4,3.3,-24.5,21.7,3.3,-24.2,5.73,1.90,-11.9,27.7
2015-11-06 01:09:00,0.0,2.00317,0.00213,404.417,0.175,0.1016,0.0018,139.997,45.000,31834.71637,2.00517,404.912,35.176,45.069,45.000,0.00,0.09,-272.75,-272.80,-7,528,-956,21.4,3.3,-24.5,21.7,3.3,-24.2,5.73,1.98,-11.9,27.7
2015-11-06 01:10:00,0.0,2.00158,0.00027,404.232,0.029,0.1015,0.0018,140.001,45.000,31835.15632,2.00358,404.725,35.183,45.069,45.000,0.00,0.09,-272.75,-272.80,-8,528,-956,21.4,3.3,-24.5,21.6,3.3,-24.2,5.73,2.06,-11.9,27.7
2015-11-06 01:11:00,0.0,2.00152,0.00039,404.252,0.030,0.1022,0.0017,139.996,45.000,31831.94635,2.00354,404.751,35.181,45.069,45.000,0.00,0.09,-272.75,-272.81,-8,527,-956,21.4,3.3,-24.5,21.6,3.3,-24.2,5.73,2.10,-11.9,27.7
2015-11-06 01:12:00,0.0,2.00216,0.00143,404.330,0.118,0.1023,0.0021,139.998,45.000,31834.51518,2.00414,404.826,35.153,45.069,45.000,0.00,0.09,-272.75,-272.81,-8,528,-956,21.4,3.3,-24.4,21.6,3.3,-24.2,5.73,2.05,-11.9,27.7
2015-11-06 01:13:00,0.0,2.00494,0.00232,404.567,0.223,0.1021,0.0028,139.999,45.000,31833.33886,2.00678,405.055,35.162,45.069,45.000,0.00,0.09,-272.74,-272.80,-8,528,-956,21.4,3.3,-24.6,21.6,3.3,-24.2,5.73,1.97,-11.9,27.7
2015-11-06 01:14:00,0.0,2.00780,0.00080,404.826,0.075,0.1008,0.0020,139.997,45.000,31831.76763,2.00984,405.322,35.136,45.069,45.000,0.00,0.09,-272.75,-272.81,-8,528,-956,21.4,3.3,-24.7,21.6,3.3,-24.3,5.73,1.89,-11.9,27.7
2015-11-06 01:15:00,0.0,2.00398,0.00237,404.507,0.195,0.1001,0.0016,139.999,45.000,31833.26131,2.00613,405.000,35.130,45.069,45.000,0.00,0.09,-272.75,-272.81,-8,528,-956,21.3,3.2,-24.8,21.6,3.3,-24.4,5.73,1.89,-11.9,27.6
2015-11-06 01:16:00,0.0,2.00249,0.00126,404.388,0.102,0.1007,0.0016,139.999,45.000,31831.33901,2.00434,404.874,35.153,45.069,45.000,0.00,0.09,-272.74,-272.80,-8,528,-956,21.3,3.3,-24.7,21.6,3.3,-24.4,5.73,1.96,-11.9,27.7
2015-11-06 01:17:00,0.0,2.00622,0.00094,404.655,0.061,0.1000,0.0025,139.999,45.000,31831.13565,2.00815,405.139,35.135,45.069,45.000,0.00,0.09,-272.74,-272.80,-8,528,-956,21.3,3.2,-24.7,21.6,3.3,-24.4,5.73,2.05,-11.9,27.6
2015-11-06 01:18:00,0.0,2.00655,0.00124,404.734,0.137,0.0994,0.0018,139.999,45.000,31831.40332,2.00846,405.215,35.151,45.069,45.000,0.00,0.09,-272.75,-272.81,-7,527,-956,21.3,3.2,-24.8,21.6,3.3,-24.4,5.73,2.09,-12.0,27.6
2015-11-06 01:19:00,0.0,2.00773,0.00048,404.877,0.064,0.0982,0.0013,140.001,45.000,31831.19151,2.00968,405.356,35.145,45.069,45.000,0.00,0.09,-272.75,-272.80,-7,527,-956,21.3,3.2,-24.8,21.6,3.3,-24.5,5.73,2.07,-11.9,27.6
2015-11-06 01:20:00,0.0,2.00625,0.00053,404.834,0.041,0.0974,0.0016,139.998,45.000,31831.64106,2.00828,405.312,35.141,45.069,45.000,0.00,0.09,-272.74,-272.80,-7,527,-956,21.3,3.2,-25.0,21.6,3.3,-24.5,5.73,1.99,-12.0,27.6
2015-11-06 01:21:00,0.0,2.00523,0.00063,404.748,0.048,0.0981,0.0014,140.003,45.000,31832.49672,2.00712,405.225,35.143,45.069,45.000,0.00,0.09,-272.75,-272.81,-7,527,-956,21.3,3.2,-25.0,21.6,3.2,-24.6,5.73,1.91,-12.0,27.6
2015-11-06 01:22:00,0.0,2.00590,0.00086,404.727,0.076,0.0979,0.0017,140.001,45.000,31830.72367,2.00780,405.204,35.127,45.069,45.000,0.00,0.09,-272.75,-272.81,-7,527,-956,21.3,3.2,-25.0,21.5,3.2,-24.6,5.73,1.88,-12.0,27.6
2015-11-06 01:23:00,0.0,2.00492,0.00145,404.656,0.140,0.0974,0.0009,139.997,45.000,31829.17807,2.00699,405.137,35.129,45.069,45.000,0.00,0.09,-272.75,-272.80,-8,527,-956,21.3,3.2,-25.0,21.5,3.2,-24.6,5.73,1.94,-12.0,27.6
2015-11-06 01:24:00,0.0,2.00342,0.00034,404.485,0.045,0.0979,0.0017,139.998,45.000,31830.26734,2.00531,404.962,35.135,45.069,45.000,0.00,0.09,-272.75,-272.80,-8,527,-956,21.3,3.2,-25.0,21.5,3.2,-24.6,5.73,2.02,-12.0,27.6
2015-11-06 01:25:00,0.0,2.00554,0.00102,404.677,0.082,0.0979,0.0017,140.001,45.000,31832.08095,2.00742,405.151,35.131,45.069,45.000,0.00,0.09,-272.76,-272.81,-8,527,-956,21.3,3.2,-24.9,21.5,3.3,-24.5,5.73,2.09,-12.0,27.6
2015-11-06 01:26:00,0.0,2.00516,0.00073,404.659,0.041,0.0978,0.0018,139.999,45.000,31830.26125,2.00714,405.136,35.135,45.069,45.000,0.00,0.09,-272.75,-272.80,-8,527,-956,21.3,3.2,-24.9,21.5,3.3,-24.6,5.73,2.09,-12.0,27.6
2015-11-06 01:27:00,0.0,2.00421,0.00058,404.617,0.056,0.0981,0.0017,139.996,45.000,31828.48787,2.00617,405.096,35.148,45.069,45.000,0.00,0.09,-272.74,-272.81,-8,527,-956,21.3,3.2,-25.0,21.5,3.3,-24.6,5.73,2.03,-12.0,27.6
2015-11-06 01:28:00,0.0,2.00379,0.00076,404.536,0.079,0.0979,0.0016,140.000,45.000,31829.64881,2.00573,405.014,35.134,45.069,45.000,0.00,0.09,-272.75,-272.81,-8,527,-956,21.3,3.2,-24.9,21.5,3.3,-24.5,5.73,1.94,-12.0,27.6
2015-11-06 01:29:00,0.0,2.00372,0.00044,404.474,0.030,0.0980,0.0024,140.001,45.000,31830.13898,2.00562,404.951,35.140,45.069,45.000,0.00,0.09,-272.75,-272.81,-8,527,-956,21.3,3.2,-24.9,21.5,3.3,-24.6,5.73,1.89,-12.0,27.5
2015-11-06 01:30:00,0.0,2.00382,0.00054,404.471,0.045,0.0994,0.0015,139.999,45.000,31830.73071,2.00578,404.954,35.143,45.069,45.000,0.00,0.09,-272.74,-272.80,-8,527,-956,21.3,3.2,-24.9,21.5,3.3,-24.6,5.73,1.91,-12.0,27.5
2015-11-06 01:31:00,0.0,2.00517,0.00084,404.567,0.061,0.0989,0.0017,139.996,45.000,31826.23289,2.00705,405.047,35.161,45.069,45.000,0.00,0.09,-272.75,-272.81,-7,527,-956,21.3,3.2,-24.9,21.5,3.3,-24.4,5.73,1.97,-12.0,27.5
2015-11-06 01:32:00,0.0,2.00546,0.00053,404.605,0.049,0.0997,0.0015,139.997,45.000,31827.06706,2.00746,405.092,35.175,45.069,45.000,0.00,0.09,-272.75,-272.81,-7,527,-956,21.3,3.2,-24.9,21.5,3.3,-24.5,5.73,2.06,-12.0,27.5
2015-11-06 01:33:00,0.0,2.00628,0.00047,404.652,0.050,0.0995,0.0016,139.999,45.000,31827.78850,2.00823,405.135,35.159,45.069,45.000,0.00,0.09,-272.74,-272.80,-7,527,-956,21.2,3.2,-24.8,21.5,3.3,-24.5,5.73,2.10,-12.0,27.5
2015-11-06 01:34:00,0.0,2.00676,0.00056,404.662,0.057,0.0995,0.0016,140.000,45.000,31827.72221,2.00871,405.145,35.152,45.069,45.000,0.00,0.09,-272.75,-272.81,-7,527,-956,21.2,3.2,-24.8,21.5,3.3,-24.5,5.73,2.07,-12.0,27.5
2015-11-06 01:35:00,0.0,2.00638,0.00092,404.713,0.066,0.0992,0.0013,139.999,45.000,31828.21624,2.00840,405.199,35.134,45.069,45.000,0.00,0.09,-272.76,-272.81,-7,527,-956,21.2,3.2,-24.9,21.5,3.3,-24.5,5.73,1.99,-12.0,27.5
2015-11-06 01:36:00,0.0,2.00644,0.00052,404.694,0.069,0.1001,0.0017,139.997,45.000,31826.92027,2.00836,405.182,35.127,45.069,45.000,0.00,0.09,-272.75,-272.80,-7,527,-956,21.2,3.2,-24.8,21.4,3.3,-24.5,5.73,1.91,-12.0,27.5
2015-11-06 01:37:00,0.0,2.00571,0.00050,404.618,0.092,0.0999,0.0014,139.998,45.000,31826.38615,2.00774,405.108,35.125,45.069,45.000,0.00,0.09,-272.74,-272.80,-8,527,-956,21.2,3.3,-24.8,21.5,3.3,-24.5,5.73,1.89,-12.0,27.5
2015-11-06 01:38:00,0.0,2.00484,0.00069,404.575,0.105,0.1002,0.0016,139.999,45.000,31825.98410,2.00681,405.059,35.125,45.069,45.000,0.00,0.09,-272.76,-272.81,-8,527,-956,21.2,3.3,-24.8,21.4,3.3,-24.4,5.73,1.93,-12.0,27.5
2015-11-06 01:39:00,0.0,2.00642,0.00048,404.631,0.057,0.1001,0.0014,139.998,45.000,31827.56782,2.00835,405.118,35.125,45.069,45.000,0.00,0.09,-272.76,-272.80,-8,527,-956,21.2,3.3,-24.8,21.4,3.3,-24.4,5.73,2.02,-12.0,27.5
2015-11-06 01:40:00,0.0,2.00533,0.00057,404.774,0.044,0.1004,0.0018,139.997,45.000,31827.36296,2.00738,405.263,35.126,45.069,45.000,0.00,0.09,-272.75,-272.80,-8,527,-956,21.2,3.3,-24.7,21.5,3.3,-24.4,5.73,2.08,-12.0,27.5
2015-11-06 01:41:00,0.0,2.00516,0.00069,404.701,0.046,0.1002,0.0017,140.001,45.000,31828.65140,2.00711,405.192,35.125,45.069,45.000,0.00,0.09,-272.75,-272.81,-8,527,-956,21.2,3.3,-24.8,21.4,3.3,-24.4,5.73,2.10,-12.0,27.5
2015-11-06 01:42:00,0.0,2.00473,0.00105,404.632,0.023,0.1013,0.0016,139.995,45.000,31826.05235,2.00683,405.125,35.125,45.069,45.000,0.00,0.09,-272.75,-272.81,-8,527,-956,21.2,3.3,-24.7,21.4,3.3,-24.3,5.73,2.04,-12.0,27.5
2015-11-06 01:43:00,0.0,2.00449,0.00082,404.615,0.053,0.1008,0.0018,139.995,45.000,31825.52678,2.00641,405.109,35.125,45.069,45.000,0.00,0.09,-272.74,-272.81,-8,527,-956,21.2,3.3,-24.7,21.4,3.4,-24.3,5.73,1.95,-12.0,27.5
2015-11-06 01:44:00,0.0,2.00406,0.00056,404.630,0.047,0.1011,0.0019,140.000,45.000,31823.80808,2.00607,405.121,35.125,45.069,45.000,0.00,0.09,-272.75,-272.81,-8,527,-956,21.2,3.3,-24.7,21.4,3.3,-24.3,5.73,1.90,-12.0,27.5
2015-11-06 01:45:00,0.0,2.00407,0.00095,404.627,0.045,0.1012,0.0015,139.997,45.000,31822.52094,2.00613,405.120,35.125,45.069,45.000,0.00,0.09,-272.75,-272.82,-7,527,-956,21.2,3.3,-24.6,21.4,3.4,-24.3,5.73,1.89,-12.0,27.5